When you browse on this site, cookies collect data to enhance your experience and personalize the content and advertising you see.
Visit our Privacy Policy to learn more. By continuing to use the site, you agree to this use of cookies and data.
  • In Hungary
  • List of Countries
  • For 7 days
  • Water Temperature
  • Weather Map
  • News
  • Weather Widgets
  • user-avatar
    Login

    Hourly Weather Ammerschwihr

    Today, 10 April, Friday

    Time Temperature Precipitation Wind Pressure Humidity
    00:00 +13°C° 0 mm 1 mps 738 mmHg 63%
    01:00 +12°C° 0 mm 1 mps 737 mmHg 64%
    02:00 +12°C° 0 mm 1 mps 737 mmHg 65%
    03:00 +12°C° 0 mm 1 mps 737 mmHg 66%
    04:00 +12°C° 0 mm 1 mps 737 mmHg 68%
    05:00 +12°C° 0 mm 1 mps 738 mmHg 69%
    06:00 +13°C° 0 mm 1 mps 738 mmHg 68%
    07:00 +15°C° 0 mm 1 mps 738 mmHg 62%
    08:00 +18°C° 0 mm 1 mps 738 mmHg 56%
    09:00 +19°C° 0 mm 2 mps 738 mmHg 49%
    10:00 +20°C° 0 mm 2 mps 738 mmHg 46%
    11:00 +21°C° 0 mm 2 mps 738 mmHg 44%
    12:00 +23°C° 0 mm 2 mps 738 mmHg 39%
    13:00 +23°C° 0 mm 2 mps 738 mmHg 39%
    14:00 +23°C° 0 mm 2 mps 737 mmHg 38%
    15:00 +23°C° 0 mm 2 mps 737 mmHg 38%
    16:00 +20°C° 0 mm 2 mps 737 mmHg 46%
    17:00 +18°C° 0 mm 2 mps 737 mmHg 55%
    18:00 +16°C° 0 mm 2 mps 737 mmHg 63%
    19:00 +16°C° 0 mm 2 mps 737 mmHg 64%
    20:00 +15°C° 0 mm 2 mps 737 mmHg 65%
    21:00 +14°C° 0 mm 1 mps 737 mmHg 66%
    22:00 +13°C° 0 mm 1 mps 737 mmHg 68%
    23:00 +13°C° 0 mm 1 mps 737 mmHg 70%

    Tomorrow, 11 April, Saturday

    Time Temperature Precipitation Wind Pressure Humidity
    00:00 +12°C° 0 mm 1 mps 737 mmHg 73%
    01:00 +12°C° 0 mm 1 mps 737 mmHg 74%
    02:00 +12°C° 0 mm 1 mps 737 mmHg 76%
    03:00 +10°C° 0 mm 0 mps 738 mmHg 78%
    04:00 +11°C° 0 mm 0 mps 738 mmHg 78%
    05:00 +11°C° 0 mm 0 mps 738 mmHg 78%
    06:00 +11°C° 0 mm 0 mps 738 mmHg 77%
    07:00 +14°C° 0 mm 1 mps 738 mmHg 70%
    08:00 +18°C° 0 mm 1 mps 738 mmHg 63%
    09:00 +20°C° 0 mm 1 mps 738 mmHg 56%
    10:00 +21°C° 0 mm 1 mps 738 mmHg 53%
    11:00 +21°C° 0 mm 1 mps 738 mmHg 50%
    12:00 +21°C° 0 mm 2 mps 738 mmHg 46%
    13:00 +21°C° 0 mm 2 mps 737 mmHg 47%
    14:00 +22°C° 0 mm 1 mps 737 mmHg 47%
    15:00 +22°C° 0 mm 1 mps 736 mmHg 48%
    16:00 +20°C° 0 mm 1 mps 736 mmHg 54%
    17:00 +19°C° 0 mm 1 mps 736 mmHg 60%
    18:00 +16°C° 0 mm 1 mps 736 mmHg 67%
    19:00 +15°C° 0 mm 1 mps 736 mmHg 69%
    20:00 +14°C° 0 mm 1 mps 736 mmHg 71%
    21:00 +13°C° 0 mm 1 mps 736 mmHg 73%
    22:00 +13°C° 0 mm 1 mps 736 mmHg 74%
    23:00 +13°C° 0 mm 1 mps 736 mmHg 75%

    Day after tomorrow, 12 April, Sunday

    Time Temperature Precipitation Wind Pressure Humidity
    00:00 +11°C° 0 mm 0 mps 736 mmHg 76%
    01:00 +12°C° 0 mm 1 mps 736 mmHg 77%
    02:00 +12°C° 0 mm 1 mps 736 mmHg 78%
    03:00 +11°C° 0 mm 1 mps 735 mmHg 79%
    04:00 +12°C° 0 mm 1 mps 735 mmHg 78%
    05:00 +12°C° 0 mm 1 mps 735 mmHg 77%
    06:00 +13°C° 0 mm 1 mps 735 mmHg 76%
    07:00 +15°C° 0 mm 1 mps 735 mmHg 69%
    08:00 +18°C° 0 mm 1 mps 734 mmHg 61%
    09:00 +20°C° 0 mm 2 mps 734 mmHg 53%
    10:00 +20°C° 0.1 mm 2 mps 734 mmHg 50%
    11:00 +21°C° 0.1 mm 2 mps 733 mmHg 47%
    12:00 +23°C° 0.1 mm 2 mps 733 mmHg 43%
    13:00 +23°C° 0.2 mm 2 mps 732 mmHg 42%
    14:00 +23°C° 0.2 mm 2 mps 732 mmHg 42%
    15:00 +23°C° 0.2 mm 1 mps 731 mmHg 41%
    16:00 +21°C° 0.1 mm 1 mps 731 mmHg 50%
    17:00 +19°C° 0.1 mm 1 mps 730 mmHg 58%
    18:00 +16°C° 0.1 mm 1 mps 730 mmHg 67%
    19:00 +15°C° 0 mm 1 mps 730 mmHg 68%
    20:00 +14°C° 0 mm 1 mps 730 mmHg 70%
    21:00 +13°C° 0 mm 2 mps 730 mmHg 72%
    22:00 +13°C° 0 mm 2 mps 730 mmHg 70%
    23:00 +12°C° 0 mm 2 mps 730 mmHg 69%

    13 April, Monday

    Time Temperature Precipitation Wind Pressure Humidity
    00:00 +12°C° 0 mm 2 mps 730 mmHg 68%
    01:00 +12°C° 0 mm 2 mps 730 mmHg 67%
    02:00 +10°C° 0 mm 2 mps 730 mmHg 67%
    03:00 +10°C° 0 mm 2 mps 730 mmHg 66%
    04:00 +10°C° 0 mm 2 mps 730 mmHg 64%
    05:00 +10°C° 0 mm 2 mps 730 mmHg 63%
    06:00 +10°C° 0 mm 2 mps 730 mmHg 61%
    07:00 +13°C° 0 mm 2 mps 730 mmHg 55%
    08:00 +14°C° 0 mm 3 mps 730 mmHg 49%
    09:00 +17°C° 0 mm 3 mps 730 mmHg 42%
    10:00 +18°C° 0 mm 3 mps 730 mmHg 40%
    11:00 +19°C° 0 mm 3 mps 731 mmHg 37%
    12:00 +20°C° 0 mm 3 mps 731 mmHg 35%
    13:00 +20°C° 0 mm 3 mps 730 mmHg 36%
    14:00 +20°C° 0 mm 3 mps 730 mmHg 37%
    15:00 +20°C° 0 mm 3 mps 730 mmHg 38%
    16:00 +18°C° 0 mm 3 mps 730 mmHg 48%
    17:00 +16°C° 0 mm 3 mps 730 mmHg 58%
    18:00 +14°C° 0 mm 2 mps 730 mmHg 68%
    19:00 +12°C° 0 mm 3 mps 731 mmHg 75%
    20:00 +11°C° 0 mm 3 mps 732 mmHg 81%
    21:00 +10°C° 0 mm 3 mps 732 mmHg 88%
    22:00 +8°C° 0.1 mm 4 mps 733 mmHg 85%
    23:00 +7°C° 0.1 mm 4 mps 733 mmHg 83%

    14 April, Tuesday

    Time Temperature Precipitation Wind Pressure Humidity
    00:00 +6°C° 0.1 mm 4 mps 733 mmHg 80%
    01:00 +5°C° 0 mm 3 mps 733 mmHg 80%
    02:00 +4°C° 0 mm 3 mps 733 mmHg 79%
    03:00 +3°C° 0 mm 3 mps 733 mmHg 78%
    04:00 +3°C° 0 mm 3 mps 734 mmHg 78%
    05:00 +3°C° 0 mm 4 mps 734 mmHg 77%
    06:00 +3°C° 0 mm 4 mps 734 mmHg 77%
    07:00 +5°C° 0 mm 4 mps 734 mmHg 70%
    08:00 +6°C° 0 mm 4 mps 734 mmHg 62%
    09:00 +7°C° 0 mm 4 mps 734 mmHg 55%
    10:00 +8°C° 0 mm 4 mps 734 mmHg 51%
    11:00 +10°C° 0 mm 5 mps 734 mmHg 48%
    12:00 +12°C° 0 mm 5 mps 734 mmHg 44%
    13:00 +12°C° 0 mm 5 mps 734 mmHg 43%
    14:00 +12°C° 0 mm 5 mps 733 mmHg 42%
    15:00 +13°C° 0 mm 5 mps 733 mmHg 42%
    16:00 +10°C° 0 mm 5 mps 733 mmHg 45%
    17:00 +8°C° 0 mm 5 mps 733 mmHg 49%
    18:00 +7°C° 0 mm 4 mps 733 mmHg 53%
    19:00 +6°C° 0 mm 4 mps 733 mmHg 55%
    20:00 +5°C° 0 mm 4 mps 733 mmHg 58%
    21:00 +4°C° 0 mm 4 mps 733 mmHg 60%
    22:00 +3°C° 0 mm 4 mps 733 mmHg 59%
    23:00 +3°C° 0 mm 3 mps 732 mmHg 59%

    15 April, Wednesday

    Time Temperature Precipitation Wind Pressure Humidity
    00:00 +2°C° 0 mm 3 mps 732 mmHg 58%
    01:00 +2°C° 0 mm 3 mps 732 mmHg 59%
    02:00 +2°C° 0 mm 2 mps 732 mmHg 61%
    03:00 +2°C° 0 mm 2 mps 731 mmHg 62%
    04:00 +2°C° 0 mm 2 mps 731 mmHg 60%
    05:00 +3°C° 0 mm 2 mps 731 mmHg 58%
    06:00 +3°C° 0 mm 2 mps 731 mmHg 56%
    07:00 +5°C° 0 mm 2 mps 731 mmHg 52%
    08:00 +8°C° 0 mm 2 mps 731 mmHg 47%
    09:00 +10°C° 0 mm 2 mps 731 mmHg 43%
    10:00 +13°C° 0 mm 2 mps 731 mmHg 42%
    11:00 +15°C° 0 mm 2 mps 731 mmHg 42%
    12:00 +16°C° 0 mm 2 mps 731 mmHg 41%
    13:00 +17°C° 0 mm 2 mps 730 mmHg 42%
    14:00 +18°C° 0 mm 2 mps 730 mmHg 44%
    15:00 +18°C° 0 mm 2 mps 729 mmHg 45%
    16:00 +17°C° 0 mm 2 mps 729 mmHg 52%
    17:00 +15°C° 0 mm 2 mps 729 mmHg 59%
    18:00 +13°C° 0 mm 1 mps 728 mmHg 66%
    19:00 +12°C° 0 mm 1 mps 728 mmHg 68%
    20:00 +11°C° 0 mm 1 mps 729 mmHg 71%
    21:00 +10°C° 0 mm 1 mps 729 mmHg 73%
    22:00 +10°C° 0 mm 1 mps 729 mmHg 74%
    23:00 +10°C° 0 mm 1 mps 729 mmHg 74%
    Show more